Time,TemperatureF,DewpointF,PressureIn,WindDirection,WindDirectionDegrees,WindSpeedMPH,WindSpeedGustMPH,Humidity,HourlyPrecipIn,Conditions,Clouds,dailyrainin,SoftwareType,DateUTC
2013-03-07 00:05:00,34.2,22.8,30.08,ENE,67,1.3,5.8,63,0.00,,,0.00,WUHU21623XXSP,2013-03-07 05:05:00,
2013-03-07 00:10:00,34.2,22.8,30.08,ESE,112,1.3,3.1,63,0.00,,,0.00,WUHU21623XXSP,2013-03-07 05:10:00,
2013-03-07 00:15:00,34.0,22.6,30.08,ESE,112,0.0,3.1,63,0.00,,,0.00,WUHU21623XXSP,2013-03-07 05:15:00,
2013-03-07 00:20:00,33.8,22.5,30.09,ESE,112,3.4,3.4,63,0.00,,,0.00,WUHU21623XXSP,2013-03-07 05:20:00,
2013-03-07 00:25:00,33.6,22.3,30.08,ESE,112,0.4,3.4,63,0.00,,,0.00,WUHU21623XXSP,2013-03-07 05:25:00,
2013-03-07 00:30:00,33.6,22.3,30.09,East,90,0.0,0.4,63,0.00,,,0.00,WUHU21623XXSP,2013-03-07 05:30:00,
2013-03-07 00:35:00,33.6,22.3,30.09,ESE,112,0.7,0.7,63,0.00,,,0.00,WUHU21623XXSP,2013-03-07 05:35:00,
2013-03-07 00:40:00,33.8,22.1,30.09,ESE,112,4.7,4.7,62,0.00,,,0.00,WUHU21623XXSP,2013-03-07 05:40:00,
2013-03-07 00:45:00,34.0,22.3,30.09,ENE,67,2.7,4.7,62,0.00,,,0.00,WUHU21623XXSP,2013-03-07 05:45:00,
2013-03-07 00:50:00,34.0,21.9,30.09,SE,135,6.5,6.5,61,0.00,,,0.00,WUHU21623XXSP,2013-03-07 05:50:00,
2013-03-07 00:55:00,34.0,21.9,30.09,ESE,112,2.5,6.5,61,0.00,,,0.00,WUHU21623XXSP,2013-03-07 05:55:00,
2013-03-07 01:00:00,33.8,21.7,30.09,ESE,112,0.0,2.5,61,0.00,,,0.00,WUHU21623XXSP,2013-03-07 06:00:00,
2013-03-07 01:05:00,33.6,21.6,30.09,ESE,112,0.0,1.6,61,0.00,,,0.00,WUHU21623XXSP,2013-03-07 06:05:00,
2013-03-07 01:10:00,33.6,21.6,30.09,ESE,112,0.7,3.4,61,0.00,,,0.00,WUHU21623XXSP,2013-03-07 06:10:00,
2013-03-07 01:15:00,33.6,21.9,30.10,ESE,112,0.0,5.4,62,0.00,,,0.00,WUHU21623XXSP,2013-03-07 06:15:00,
2013-03-07 01:20:00,33.6,21.9,30.09,SE,135,0.0,5.4,62,0.00,,,0.00,WUHU21623XXSP,2013-03-07 06:20:00,
2013-03-07 01:25:00,33.6,21.9,30.10,SE,135,0.0,2.2,62,0.00,,,0.00,WUHU21623XXSP,2013-03-07 06:25:00,
2013-03-07 01:30:00,33.4,21.8,30.10,SE,135,0.0,0.0,62,0.00,,,0.00,WUHU21623XXSP,2013-03-07 06:30:00,
2013-03-07 01:35:00,33.3,22.0,30.10,SE,135,0.0,0.0,63,0.00,,,0.00,WUHU21623XXSP,2013-03-07 06:35:00,
2013-03-07 01:40:00,32.9,21.6,30.10,SE,135,0.0,0.0,63,0.00,,,0.00,WUHU21623XXSP,2013-03-07 06:40:00,
2013-03-07 01:45:00,32.9,21.6,30.10,SE,135,1.8,1.8,63,0.00,,,0.00,WUHU21623XXSP,2013-03-07 06:45:00,
2013-03-07 01:50:00,33.3,21.6,30.10,East,90,0.0,4.7,62,0.00,,,0.00,WUHU21623XXSP,2013-03-07 06:50:00,
2013-03-07 01:55:00,33.4,21.8,30.10,ENE,67,0.0,4.7,62,0.00,,,0.00,WUHU21623XXSP,2013-03-07 06:55:00,
2013-03-07 02:00:00,33.4,21.8,30.10,ESE,112,0.0,2.2,62,0.00,,,0.00,WUHU21623XXSP,2013-03-07 07:00:00,
2013-03-07 02:05:00,33.4,21.8,30.10,SE,135,1.3,1.3,62,0.00,,,0.00,WUHU21623XXSP,2013-03-07 07:05:00,
2013-03-07 02:10:00,33.4,21.8,30.10,ESE,112,0.9,1.3,62,0.00,,,0.00,WUHU21623XXSP,2013-03-07 07:10:00,
2013-03-07 02:15:00,33.3,21.6,30.10,ESE,112,0.4,0.9,62,0.00,,,0.00,WUHU21623XXSP,2013-03-07 07:15:00,
2013-03-07 02:20:00,33.1,21.8,30.10,ESE,112,0.0,0.4,63,0.00,,,0.00,WUHU21623XXSP,2013-03-07 07:20:00,
2013-03-07 02:25:00,33.1,21.8,30.10,ESE,112,0.0,0.0,63,0.00,,,0.00,WUHU21623XXSP,2013-03-07 07:25:00,
2013-03-07 02:30:00,32.9,21.6,30.10,ENE,67,0.0,0.0,63,0.00,,,0.00,WUHU21623XXSP,2013-03-07 07:30:00,
2013-03-07 02:35:00,32.9,22.0,30.10,ENE,67,0.0,0.0,64,0.00,,,0.00,WUHU21623XXSP,2013-03-07 07:35:00,
2013-03-07 02:40:00,32.7,21.8,30.11,ENE,67,0.0,0.0,64,0.00,,,0.00,WUHU21623XXSP,2013-03-07 07:40:00,
2013-03-07 02:45:00,32.7,21.8,30.11,ENE,67,0.0,0.0,64,0.00,,,0.00,WUHU21623XXSP,2013-03-07 07:45:00,
2013-03-07 02:50:00,32.7,21.8,30.10,ENE,67,0.0,0.9,64,0.00,,,0.00,WUHU21623XXSP,2013-03-07 07:50:00,
2013-03-07 02:56:00,32.7,21.8,30.10,East,90,1.3,2.5,64,0.00,,,0.00,WUHU21623XXSP,2013-03-07 07:56:00,
2013-03-07 03:01:00,32.9,21.6,30.10,ENE,67,3.1,4.9,63,0.00,,,0.00,WUHU21623XXSP,2013-03-07 08:01:00,
2013-03-07 03:06:00,32.9,21.6,30.10,East,90,0.4,3.1,63,0.00,,,0.00,WUHU21623XXSP,2013-03-07 08:06:00,
2013-03-07 03:11:00,32.7,21.5,30.10,NE,45,3.6,3.6,63,0.00,,,0.00,WUHU21623XXSP,2013-03-07 08:11:00,
2013-03-07 03:16:00,32.7,21.5,30.10,East,90,0.0,3.6,63,0.00,,,0.00,WUHU21623XXSP,2013-03-07 08:16:00,
2013-03-07 03:21:00,32.7,21.8,30.10,East,90,0.0,0.0,64,0.00,,,0.00,WUHU21623XXSP,2013-03-07 08:21:00,
2013-03-07 03:26:00,32.7,21.8,30.11,ENE,67,0.0,0.0,64,0.00,,,0.00,WUHU21623XXSP,2013-03-07 08:26:00,
2013-03-07 03:31:00,32.7,21.8,30.11,ENE,67,0.0,0.0,64,0.00,,,0.00,WUHU21623XXSP,2013-03-07 08:31:00,
2013-03-07 03:36:00,32.7,21.5,30.11,NNE,22,6.7,6.7,63,0.00,,,0.00,WUHU21623XXSP,2013-03-07 08:36:00,
2013-03-07 03:41:00,32.7,21.5,30.10,ENE,67,0.0,6.7,63,0.00,,,0.00,WUHU21623XXSP,2013-03-07 08:41:00,
2013-03-07 03:46:00,32.7,21.8,30.10,ENE,67,0.7,6.7,64,0.00,,,0.00,WUHU21623XXSP,2013-03-07 08:46:00,
2013-03-07 03:51:00,32.5,21.7,30.10,ESE,112,2.5,3.1,64,0.00,,,0.00,WUHU21623XXSP,2013-03-07 08:51:00,
2013-03-07 03:56:00,32.5,21.7,30.10,ENE,67,2.9,3.1,64,0.00,,,0.00,WUHU21623XXSP,2013-03-07 08:56:00,
2013-03-07 04:01:00,32.5,21.3,30.10,East,90,0.0,2.9,63,0.00,,,0.00,WUHU21623XXSP,2013-03-07 09:01:00,
2013-03-07 04:07:00,32.5,21.3,30.11,ENE,67,1.8,1.8,63,0.00,,,0.00,WUHU21623XXSP,2013-03-07 09:07:00,
2013-03-07 04:12:00,32.5,21.3,30.11,ENE,67,0.0,1.8,63,0.00,,,0.00,WUHU21623XXSP,2013-03-07 09:12:00,
2013-03-07 04:17:00,32.4,21.2,30.11,ENE,67,1.8,2.0,63,0.00,,,0.00,WUHU21623XXSP,2013-03-07 09:17:00,
2013-03-07 04:22:00,32.4,21.2,30.10,ENE,67,0.0,2.0,63,0.00,,,0.00,WUHU21623XXSP,2013-03-07 09:22:00,
2013-03-07 04:27:00,32.4,21.2,30.10,ENE,67,0.0,0.0,63,0.00,,,0.00,WUHU21623XXSP,2013-03-07 09:27:00,
2013-03-07 04:32:00,32.4,20.8,30.10,NE,45,3.1,5.4,62,0.00,,,0.00,WUHU21623XXSP,2013-03-07 09:32:00,
2013-03-07 04:37:00,32.4,20.8,30.10,ENE,67,1.6,5.4,62,0.00,,,0.00,WUHU21623XXSP,2013-03-07 09:37:00,
2013-03-07 04:42:00,32.4,20.8,30.10,ENE,67,0.0,1.6,62,0.00,,,0.00,WUHU21623XXSP,2013-03-07 09:42:00,
2013-03-07 04:47:00,32.2,21.0,30.11,ENE,67,0.0,1.3,63,0.00,,,0.00,WUHU21623XXSP,2013-03-07 09:47:00,
2013-03-07 04:52:00,32.2,21.0,30.11,ENE,67,0.0,1.3,63,0.00,,,0.00,WUHU21623XXSP,2013-03-07 09:52:00,
2013-03-07 04:57:00,31.8,20.7,30.10,ENE,67,0.0,0.0,63,0.00,,,0.00,WUHU21623XXSP,2013-03-07 09:57:00,
2013-03-07 05:02:00,31.8,20.7,30.10,NE,45,4.5,4.5,63,0.00,,,0.00,WUHU21623XXSP,2013-03-07 10:02:00,
2013-03-07 05:07:00,31.8,20.7,30.10,ENE,67,0.0,4.5,63,0.00,,,0.00,WUHU21623XXSP,2013-03-07 10:07:00,
2013-03-07 05:12:00,31.8,20.7,30.10,ENE,67,0.0,4.5,63,0.00,,,0.00,WUHU21623XXSP,2013-03-07 10:12:00,
2013-03-07 05:17:00,31.8,20.7,30.10,ENE,67,0.0,0.0,63,0.00,,,0.00,WUHU21623XXSP,2013-03-07 10:17:00,
2013-03-07 05:22:00,31.8,20.7,30.10,ENE,67,2.5,2.5,63,0.00,,,0.00,WUHU21623XXSP,2013-03-07 10:22:00,
2013-03-07 05:27:00,31.8,20.7,30.10,NE,45,0.0,3.1,63,0.00,,,0.00,WUHU21623XXSP,2013-03-07 10:27:00,
2013-03-07 05:32:00,31.8,20.7,30.10,ENE,67,0.0,3.1,63,0.00,,,0.00,WUHU21623XXSP,2013-03-07 10:32:00,
2013-03-07 05:37:00,31.8,19.9,30.10,ENE,67,0.0,4.5,61,0.00,,,0.00,WUHU21623XXSP,2013-03-07 10:37:00,
2013-03-07 05:42:00,32.2,20.3,30.10,ENE,67,0.0,4.5,61,0.00,,,0.00,WUHU21623XXSP,2013-03-07 10:42:00,
2013-03-07 05:47:00,32.2,20.3,30.10,NE,45,5.1,5.1,61,0.00,,,0.00,WUHU21623XXSP,2013-03-07 10:47:00,
2013-03-07 05:52:00,32.2,20.3,30.09,East,90,5.4,5.4,61,0.00,,,0.00,WUHU21623XXSP,2013-03-07 10:52:00,
2013-03-07 05:57:00,32.2,20.3,30.10,NE,45,0.0,5.4,61,0.00,,,0.00,WUHU21623XXSP,2013-03-07 10:57:00,
2013-03-07 06:02:00,32.2,20.3,30.10,NE,45,0.7,4.3,61,0.00,,,0.00,WUHU21623XXSP,2013-03-07 11:02:00,
2013-03-07 06:07:00,32.2,20.3,30.10,NE,45,0.0,0.7,61,0.00,,,0.00,WUHU21623XXSP,2013-03-07 11:07:00,
2013-03-07 06:12:00,31.8,19.9,30.10,NE,45,0.0,0.0,61,0.00,,,0.00,WUHU21623XXSP,2013-03-07 11:12:00,
2013-03-07 06:17:00,31.8,19.9,30.10,NE,45,0.0,0.0,61,0.00,,,0.00,WUHU21623XXSP,2013-03-07 11:17:00,
2013-03-07 06:22:00,31.6,19.8,30.09,NE,45,0.0,0.0,61,0.00,,,0.00,WUHU21623XXSP,2013-03-07 11:22:00,
2013-03-07 06:28:00,31.6,19.8,30.09,NE,45,0.0,0.0,61,0.00,,,0.00,WUHU21623XXSP,2013-03-07 11:28:00,
2013-03-07 06:33:00,31.6,20.1,30.09,NE,45,0.0,0.0,62,0.00,,,0.00,WUHU21623XXSP,2013-03-07 11:33:00,
2013-03-07 06:38:00,31.6,20.1,30.09,NE,45,3.6,3.6,62,0.00,,,0.00,WUHU21623XXSP,2013-03-07 11:38:00,
2013-03-07 06:43:00,31.6,19.8,30.09,NE,45,0.0,3.6,61,0.00,,,0.00,WUHU21623XXSP,2013-03-07 11:43:00,
2013-03-07 06:48:00,31.8,19.9,30.09,NE,45,0.0,2.0,61,0.00,,,0.00,WUHU21623XXSP,2013-03-07 11:48:00,
2013-03-07 06:54:00,31.8,19.9,30.10,NE,45,0.0,0.0,61,0.00,,,0.00,WUHU21623XXSP,2013-03-07 11:54:00,
2013-03-07 06:59:00,31.8,19.9,30.09,NE,45,0.0,0.0,61,0.00,,,0.00,WUHU21623XXSP,2013-03-07 11:59:00,
2013-03-07 07:04:00,31.8,19.9,30.09,NE,45,0.0,2.2,61,0.00,,,0.00,WUHU21623XXSP,2013-03-07 12:04:00,
2013-03-07 07:09:00,32.0,20.1,30.09,NE,45,0.0,2.2,61,0.00,,,0.00,WUHU21623XXSP,2013-03-07 12:09:00,
2013-03-07 07:14:00,32.4,20.4,30.09,NE,45,0.0,0.0,61,0.00,,,0.00,WUHU21623XXSP,2013-03-07 12:14:00,
2013-03-07 07:19:00,32.5,20.6,30.10,NE,45,0.0,0.0,61,0.00,,,0.00,WUHU21623XXSP,2013-03-07 12:19:00,
2013-03-07 07:25:00,32.7,20.8,30.10,NE,45,0.0,0.0,61,0.00,,,0.00,WUHU21623XXSP,2013-03-07 12:25:00,
2013-03-07 07:30:00,32.7,20.8,30.10,NE,45,0.0,0.0,61,0.00,,,0.00,WUHU21623XXSP,2013-03-07 12:30:00,
2013-03-07 07:35:00,32.9,20.9,30.10,NE,45,0.0,0.0,61,0.00,,,0.00,WUHU21623XXSP,2013-03-07 12:35:00,
2013-03-07 07:40:00,32.9,20.9,30.10,NE,45,0.0,0.0,61,0.00,,,0.00,WUHU21623XXSP,2013-03-07 12:40:00,
2013-03-07 07:45:00,33.1,20.7,30.11,NE,45,0.0,1.8,60,0.00,,,0.00,WUHU21623XXSP,2013-03-07 12:45:00,
2013-03-07 07:50:00,33.4,21.1,30.11,ENE,67,0.0,1.8,60,0.00,,,0.00,WUHU21623XXSP,2013-03-07 12:50:00,
2013-03-07 07:55:00,33.6,21.2,30.12,ENE,67,0.0,0.0,60,0.00,,,0.00,WUHU21623XXSP,2013-03-07 12:55:00,
2013-03-07 08:00:00,33.6,21.2,30.11,ENE,67,0.7,1.1,60,0.00,,,0.00,WUHU21623XXSP,2013-03-07 13:00:00,
2013-03-07 08:05:00,33.6,21.2,30.11,NE,45,0.0,1.1,60,0.00,,,0.00,WUHU21623XXSP,2013-03-07 13:05:00,
2013-03-07 08:11:00,33.6,20.8,30.11,NE,45,0.0,1.1,59,0.00,,,0.00,WUHU21623XXSP,2013-03-07 13:11:00,
2013-03-07 08:16:00,33.6,20.8,30.11,NE,45,0.0,1.6,59,0.00,,,0.00,WUHU21623XXSP,2013-03-07 13:16:00,
2013-03-07 08:21:00,34.0,21.1,30.12,NE,45,0.7,1.6,59,0.00,,,0.00,WUHU21623XXSP,2013-03-07 13:21:00,
2013-03-07 08:26:00,34.0,20.7,30.12,SE,135,4.7,4.7,58,0.00,,,0.00,WUHU21623XXSP,2013-03-07 13:26:00,
2013-03-07 08:32:00,34.0,20.7,30.12,ESE,112,0.0,4.7,58,0.00,,,0.00,WUHU21623XXSP,2013-03-07 13:32:00,
2013-03-07 08:37:00,34.0,20.7,30.12,ESE,112,3.6,3.6,58,0.00,,,0.00,WUHU21623XXSP,2013-03-07 13:37:00,
2013-03-07 08:42:00,34.0,20.7,30.12,East,90,0.0,3.6,58,0.00,,,0.00,WUHU21623XXSP,2013-03-07 13:42:00,
2013-03-07 08:48:00,34.3,21.1,30.12,SE,135,0.0,2.9,58,0.00,,,0.00,WUHU21623XXSP,2013-03-07 13:48:00,
2013-03-07 08:53:00,34.3,20.6,30.12,ESE,112,0.0,5.4,57,0.00,,,0.00,WUHU21623XXSP,2013-03-07 13:53:00,
2013-03-07 08:58:00,34.3,20.6,30.12,SE,135,3.6,5.4,57,0.00,,,0.00,WUHU21623XXSP,2013-03-07 13:58:00,
2013-03-07 09:03:00,34.7,21.4,30.12,ESE,112,4.3,4.3,58,0.00,,,0.00,WUHU21623XXSP,2013-03-07 14:03:00,
2013-03-07 09:08:00,34.7,21.0,30.12,East,90,1.1,4.9,57,0.00,,,0.00,WUHU21623XXSP,2013-03-07 14:08:00,
2013-03-07 09:13:00,34.9,21.6,30.13,NE,45,0.0,4.9,58,0.00,,,0.00,WUHU21623XXSP,2013-03-07 14:13:00,
2013-03-07 09:18:00,34.9,21.2,30.13,NE,45,3.8,6.7,57,0.00,,,0.00,WUHU21623XXSP,2013-03-07 14:18:00,
2013-03-07 09:23:00,34.9,21.6,30.13,NE,45,2.9,6.7,58,0.00,,,0.00,WUHU21623XXSP,2013-03-07 14:23:00,
2013-03-07 09:28:00,35.1,21.8,30.13,NE,45,3.8,3.8,58,0.00,,,0.00,WUHU21623XXSP,2013-03-07 14:28:00,
2013-03-07 09:33:00,34.9,21.6,30.13,North,0,3.8,6.3,58,0.00,,,0.00,WUHU21623XXSP,2013-03-07 14:33:00,
2013-03-07 09:38:00,34.7,21.8,30.13,NNE,22,3.8,7.6,59,0.00,,,0.00,WUHU21623XXSP,2013-03-07 14:38:00,
2013-03-07 09:43:00,34.5,22.1,30.13,North,0,4.0,7.6,60,0.00,,,0.00,WUHU21623XXSP,2013-03-07 14:43:00,
2013-03-07 09:48:00,34.5,22.1,30.13,North,0,3.8,6.5,60,0.00,,,0.00,WUHU21623XXSP,2013-03-07 14:48:00,
2013-03-07 09:53:00,34.3,22.3,30.13,NNW,337,4.5,7.6,61,0.00,,,0.00,WUHU21623XXSP,2013-03-07 14:53:00,
2013-03-07 09:58:00,34.3,22.3,30.13,NE,45,8.3,8.3,61,0.00,,,0.00,WUHU21623XXSP,2013-03-07 14:58:00,
2013-03-07 10:03:00,34.7,22.6,30.13,NNE,22,6.3,8.3,61,0.00,,,0.00,WUHU21623XXSP,2013-03-07 15:03:00,
2013-03-07 10:08:00,34.9,22.5,30.13,North,0,2.9,6.3,60,0.00,,,0.00,WUHU21623XXSP,2013-03-07 15:08:00,
2013-03-07 10:13:00,35.1,23.0,30.13,NE,45,6.9,6.9,61,0.00,,,0.00,WUHU21623XXSP,2013-03-07 15:13:00,
2013-03-07 10:18:00,35.2,23.2,30.13,NE,45,4.7,7.6,61,0.00,,,0.00,WUHU21623XXSP,2013-03-07 15:18:00,
2013-03-07 10:23:00,35.4,23.4,30.13,North,0,0.0,7.6,61,0.00,,,0.00,WUHU21623XXSP,2013-03-07 15:23:00,
2013-03-07 10:28:00,36.0,23.5,30.12,NNW,337,6.7,6.7,60,0.00,,,0.00,WUHU21623XXSP,2013-03-07 15:28:00,
2013-03-07 10:33:00,35.2,22.8,30.13,NNW,337,5.6,7.8,60,0.00,,,0.00,WUHU21623XXSP,2013-03-07 15:33:00,
2013-03-07 10:38:00,35.4,23.4,30.12,NNW,337,0.7,7.8,61,0.00,,,0.00,WUHU21623XXSP,2013-03-07 15:38:00,
2013-03-07 10:43:00,35.4,23.4,30.13,NW,315,6.3,6.3,61,0.00,,,0.00,WUHU21623XXSP,2013-03-07 15:43:00,
2013-03-07 10:48:00,35.4,22.6,30.12,WNW,292,2.7,6.3,59,0.00,,,0.00,WUHU21623XXSP,2013-03-07 15:48:00,
2013-03-07 10:53:00,35.4,23.0,30.13,NW,315,3.8,3.8,60,0.00,,,0.00,WUHU21623XXSP,2013-03-07 15:53:00,
2013-03-07 10:58:00,36.0,23.1,30.13,NW,315,2.0,3.8,59,0.00,,,0.00,WUHU21623XXSP,2013-03-07 15:58:00,
2013-03-07 11:03:00,36.5,23.6,30.13,North,0,7.4,7.8,59,0.00,,,0.00,WUHU21623XXSP,2013-03-07 16:03:00,
2013-03-07 11:08:00,36.3,23.0,30.13,NNE,22,6.7,7.8,58,0.00,,,0.00,WUHU21623XXSP,2013-03-07 16:08:00,
2013-03-07 11:13:00,36.3,23.0,30.13,East,90,3.6,6.7,58,0.00,,,0.00,WUHU21623XXSP,2013-03-07 16:13:00,
2013-03-07 11:18:00,36.1,22.8,30.13,NNW,337,6.9,6.9,58,0.00,,,0.00,WUHU21623XXSP,2013-03-07 16:18:00,
2013-03-07 11:24:00,36.1,23.2,30.12,NNE,22,4.3,6.9,59,0.00,,,0.00,WUHU21623XXSP,2013-03-07 16:24:00,
2013-03-07 11:29:00,36.3,23.4,30.12,NNE,22,6.3,6.3,59,0.00,,,0.00,WUHU21623XXSP,2013-03-07 16:29:00,
2013-03-07 11:34:00,36.5,23.1,30.11,NE,45,4.7,6.7,58,0.00,,,0.00,WUHU21623XXSP,2013-03-07 16:34:00,
2013-03-07 11:39:00,36.1,22.8,30.11,NE,45,7.6,7.6,58,0.00,,,0.00,WUHU21623XXSP,2013-03-07 16:39:00,
2013-03-07 11:44:00,36.0,23.1,30.12,NE,45,3.4,7.6,59,0.00,,,0.00,WUHU21623XXSP,2013-03-07 16:44:00,
2013-03-07 11:49:00,36.1,23.2,30.12,North,0,4.3,5.1,59,0.00,,,0.00,WUHU21623XXSP,2013-03-07 16:49:00,
2013-03-07 11:54:00,35.8,22.9,30.12,North,0,6.0,6.0,59,0.00,,,0.00,WUHU21623XXSP,2013-03-07 16:54:00,
2013-03-07 11:59:00,35.8,22.9,30.13,NNE,22,5.8,9.4,59,0.00,,,0.00,WUHU21623XXSP,2013-03-07 16:59:00,
2013-03-07 12:04:00,36.3,23.0,30.12,North,0,7.2,9.4,58,0.00,,,0.00,WUHU21623XXSP,2013-03-07 17:04:00,
2013-03-07 12:09:00,36.3,23.4,30.12,NNE,22,6.7,7.6,59,0.00,,,0.00,WUHU21623XXSP,2013-03-07 17:09:00,
2013-03-07 12:14:00,36.0,23.1,30.12,NNE,22,6.7,7.6,59,0.00,,,0.00,WUHU21623XXSP,2013-03-07 17:14:00,
2013-03-07 12:19:00,36.1,23.7,30.12,NNE,22,3.1,7.6,60,0.00,,,0.00,WUHU21623XXSP,2013-03-07 17:19:00,
2013-03-07 12:24:00,36.3,23.4,30.12,NNE,22,3.1,4.0,59,0.00,,,0.00,WUHU21623XXSP,2013-03-07 17:24:00,
2013-03-07 12:29:00,36.3,23.4,30.11,NNE,22,5.1,8.1,59,0.00,,,0.00,WUHU21623XXSP,2013-03-07 17:29:00,
2013-03-07 12:34:00,36.3,23.4,30.11,North,0,7.8,8.1,59,0.00,,,0.00,WUHU21623XXSP,2013-03-07 17:34:00,
2013-03-07 12:39:00,36.3,23.4,30.11,North,0,6.0,7.8,59,0.00,,,0.00,WUHU21623XXSP,2013-03-07 17:39:00,
2013-03-07 12:44:00,36.3,23.4,30.10,NNW,337,6.9,6.9,59,0.00,,,0.00,WUHU21623XXSP,2013-03-07 17:44:00,
2013-03-07 12:49:00,36.1,23.2,30.11,North,0,5.1,9.2,59,0.00,,,0.00,WUHU21623XXSP,2013-03-07 17:49:00,
2013-03-07 12:54:00,36.3,23.0,30.11,North,0,7.4,9.2,58,0.00,,,0.00,WUHU21623XXSP,2013-03-07 17:54:00,
2013-03-07 13:00:00,37.0,23.6,30.10,NNW,337,7.2,8.9,58,0.00,,,0.00,WUHU21623XXSP,2013-03-07 18:00:00,
2013-03-07 13:05:00,37.2,23.3,30.10,NNW,337,2.0,7.2,57,0.00,,,0.00,WUHU21623XXSP,2013-03-07 18:05:00,
2013-03-07 13:10:00,36.7,23.3,30.10,NW,315,4.9,7.2,58,0.00,,,0.00,WUHU21623XXSP,2013-03-07 18:10:00,
2013-03-07 13:15:00,36.5,22.7,30.10,North,0,5.4,5.4,57,0.00,,,0.00,WUHU21623XXSP,2013-03-07 18:15:00,
2013-03-07 13:20:00,36.3,23.0,30.10,NW,315,6.9,6.9,58,0.00,,,0.00,WUHU21623XXSP,2013-03-07 18:20:00,
2013-03-07 13:26:00,36.0,22.6,30.10,NNW,337,4.3,6.9,58,0.00,,,0.00,WUHU21623XXSP,2013-03-07 18:26:00,
2013-03-07 13:32:00,36.0,22.6,30.10,NNW,337,6.7,6.9,58,0.00,,,0.00,WUHU21623XXSP,2013-03-07 18:32:00,
2013-03-07 13:37:00,36.7,22.9,30.10,WNW,292,3.6,7.2,57,0.00,,,0.00,WUHU21623XXSP,2013-03-07 18:37:00,
2013-03-07 13:42:00,37.0,23.2,30.10,NNW,337,3.4,5.4,57,0.00,,,0.00,WUHU21623XXSP,2013-03-07 18:42:00,
2013-03-07 13:47:00,37.2,22.9,30.10,WNW,292,6.7,6.7,56,0.00,,,0.00,WUHU21623XXSP,2013-03-07 18:47:00,
2013-03-07 13:52:00,37.6,23.2,30.10,NW,315,2.7,6.7,56,0.00,,,0.00,WUHU21623XXSP,2013-03-07 18:52:00,
2013-03-07 13:57:00,37.6,22.8,30.10,NNW,337,5.8,8.1,55,0.00,,,0.00,WUHU21623XXSP,2013-03-07 18:57:00,
2013-03-07 14:02:00,37.4,22.2,30.10,NW,315,4.7,8.1,54,0.00,,,0.00,WUHU21623XXSP,2013-03-07 19:02:00,
2013-03-07 14:07:00,37.6,22.4,30.10,NNW,337,6.0,7.4,54,0.00,,,0.00,WUHU21623XXSP,2013-03-07 19:07:00,
2013-03-07 14:13:00,37.6,22.4,30.10,NW,315,0.0,7.4,54,0.00,,,0.00,WUHU21623XXSP,2013-03-07 19:13:00,
2013-03-07 14:18:00,37.6,21.9,30.10,NW,315,3.8,10.5,53,0.00,,,0.00,WUHU21623XXSP,2013-03-07 19:18:00,
2013-03-07 14:23:00,37.8,22.5,30.10,NNW,337,7.6,10.5,54,0.00,,,0.00,WUHU21623XXSP,2013-03-07 19:23:00,
2013-03-07 14:28:00,37.2,22.5,30.10,NNW,337,7.6,7.6,55,0.00,,,0.00,WUHU21623XXSP,2013-03-07 19:28:00,
2013-03-07 14:33:00,37.4,22.6,30.10,North,0,7.4,7.6,55,0.00,,,0.00,WUHU21623XXSP,2013-03-07 19:33:00,
2013-03-07 14:38:00,37.2,22.5,30.10,North,0,7.6,9.2,55,0.00,,,0.00,WUHU21623XXSP,2013-03-07 19:38:00,
2013-03-07 14:44:00,36.9,23.0,30.10,NW,315,3.4,9.2,57,0.00,,,0.00,WUHU21623XXSP,2013-03-07 19:44:00,
2013-03-07 14:49:00,36.3,22.5,30.10,NW,315,3.4,7.6,57,0.00,,,0.00,WUHU21623XXSP,2013-03-07 19:49:00,
2013-03-07 14:54:00,36.3,23.0,30.10,NNW,337,7.2,7.2,58,0.00,,,0.00,WUHU21623XXSP,2013-03-07 19:54:00,
2013-03-07 14:59:00,36.3,23.0,30.10,NNW,337,7.2,7.2,58,0.00,,,0.00,WUHU21623XXSP,2013-03-07 19:59:00,
2013-03-07 15:04:00,35.8,23.3,30.10,NW,315,5.1,7.2,60,0.00,,,0.00,WUHU21623XXSP,2013-03-07 20:04:00,
2013-03-07 15:09:00,35.8,23.3,30.10,NW,315,5.1,5.1,60,0.00,,,0.00,WUHU21623XXSP,2013-03-07 20:09:00,
2013-03-07 15:14:00,35.4,23.4,30.11,North,0,6.3,8.1,61,0.00,,,0.00,WUHU21623XXSP,2013-03-07 20:14:00,
2013-03-07 15:19:00,35.4,23.4,30.11,North,0,6.3,8.1,61,0.00,,,0.00,WUHU21623XXSP,2013-03-07 20:19:00,
2013-03-07 15:24:00,35.2,22.8,30.11,North,0,6.3,6.3,60,0.00,,,0.00,WUHU21623XXSP,2013-03-07 20:24:00,
2013-03-07 15:29:00,35.2,22.8,30.12,North,0,6.3,6.3,60,0.00,,,0.00,WUHU21623XXSP,2013-03-07 20:29:00,
2013-03-07 15:34:00,34.9,22.5,30.12,NNW,337,7.4,10.3,60,0.00,,,0.00,WUHU21623XXSP,2013-03-07 20:34:00,
2013-03-07 15:39:00,34.9,22.5,30.12,North,0,7.4,10.3,60,0.00,,,0.00,WUHU21623XXSP,2013-03-07 20:39:00,
2013-03-07 15:44:00,34.9,22.5,30.11,NNW,337,3.1,9.4,60,0.00,,,0.00,WUHU21623XXSP,2013-03-07 20:44:00,
2013-03-07 15:49:00,34.9,22.5,30.12,North,0,4.7,9.4,60,0.00,,,0.00,WUHU21623XXSP,2013-03-07 20:49:00,
2013-03-07 15:55:00,34.7,22.3,30.12,North,0,3.6,8.7,60,0.00,,,0.00,WUHU21623XXSP,2013-03-07 20:55:00,
2013-03-07 16:00:00,34.5,22.1,30.12,NE,45,7.8,8.7,60,0.00,,,0.00,WUHU21623XXSP,2013-03-07 21:00:00,
2013-03-07 16:05:00,34.3,22.3,30.13,NE,45,7.6,10.1,61,0.00,,,0.00,WUHU21623XXSP,2013-03-07 21:05:00,
2013-03-07 16:11:00,34.3,22.6,30.12,North,0,4.9,10.1,62,0.00,,,0.00,WUHU21623XXSP,2013-03-07 21:11:00,
2013-03-07 16:16:00,34.3,23.0,30.13,NNE,22,5.6,8.9,63,0.00,,,0.00,WUHU21623XXSP,2013-03-07 21:16:00,
2013-03-07 16:21:00,34.0,22.6,30.12,NNE,22,6.3,8.9,63,0.00,,,0.00,WUHU21623XXSP,2013-03-07 21:21:00,
2013-03-07 16:26:00,34.0,23.0,30.13,NNW,337,6.0,7.8,64,0.00,,,0.00,WUHU21623XXSP,2013-03-07 21:26:00,
2013-03-07 16:31:00,33.8,23.2,30.13,North,0,6.5,7.6,65,0.00,,,0.00,WUHU21623XXSP,2013-03-07 21:31:00,
2013-03-07 16:36:00,33.6,23.4,30.13,North,0,8.1,8.1,66,0.00,,,0.00,WUHU21623XXSP,2013-03-07 21:36:00,
2013-03-07 16:41:00,33.3,23.8,30.13,NNW,337,5.4,8.1,68,0.00,,,0.00,WUHU21623XXSP,2013-03-07 21:41:00,
2013-03-07 16:46:00,32.7,23.6,30.13,NNW,337,7.4,8.1,69,0.00,,,0.00,WUHU21623XXSP,2013-03-07 21:46:00,
2013-03-07 16:51:00,32.7,23.6,30.13,North,0,10.1,10.1,69,0.00,,,0.00,WUHU21623XXSP,2013-03-07 21:51:00,
2013-03-07 16:56:00,32.7,23.6,30.13,NNW,337,7.2,10.1,69,0.00,,,0.00,WUHU21623XXSP,2013-03-07 21:56:00,
2013-03-07 17:01:00,32.4,23.7,30.13,North,0,8.1,8.1,70,0.00,,,0.00,WUHU21623XXSP,2013-03-07 22:01:00,
2013-03-07 17:07:00,32.4,24.3,30.14,NNW,337,8.9,8.9,72,0.00,,,0.00,WUHU21623XXSP,2013-03-07 22:07:00,
2013-03-07 17:12:00,31.6,24.3,30.14,North,0,5.1,8.9,74,0.00,,,0.00,WUHU21623XXSP,2013-03-07 22:12:00,
2013-03-07 17:17:00,31.6,24.3,30.14,North,0,4.7,8.9,74,0.00,,,0.00,WUHU21623XXSP,2013-03-07 22:17:00,
2013-03-07 17:22:00,31.3,24.6,30.14,NNW,337,7.6,7.6,76,0.00,,,0.00,WUHU21623XXSP,2013-03-07 22:22:00,
2013-03-07 17:28:00,30.9,24.5,30.14,NNE,22,6.9,7.6,77,0.00,,,0.00,WUHU21623XXSP,2013-03-07 22:28:00,
2013-03-07 17:33:00,30.9,24.9,30.14,NNW,337,6.9,7.4,78,0.00,,,0.00,WUHU21623XXSP,2013-03-07 22:33:00,
2013-03-07 17:38:00,30.7,24.7,30.15,North,0,4.7,6.9,78,0.00,,,0.00,WUHU21623XXSP,2013-03-07 22:38:00,
2013-03-07 17:43:00,30.6,24.8,30.15,North,0,6.3,6.3,79,0.00,,,0.00,WUHU21623XXSP,2013-03-07 22:43:00,
2013-03-07 17:48:00,30.4,24.7,30.15,North,0,6.5,6.5,79,0.00,,,0.00,WUHU21623XXSP,2013-03-07 22:48:00,
2013-03-07 17:53:00,30.2,24.8,30.15,NNW,337,4.3,8.3,80,0.00,,,0.00,WUHU21623XXSP,2013-03-07 22:53:00,
2013-03-07 17:58:00,30.0,24.9,30.16,NNE,22,5.4,8.3,81,0.00,,,0.00,WUHU21623XXSP,2013-03-07 22:58:00,
2013-03-07 18:03:00,30.0,24.9,30.16,NNW,337,7.4,7.6,81,0.00,,,0.00,WUHU21623XXSP,2013-03-07 23:03:00,
2013-03-07 18:08:00,29.8,25.0,30.15,NNW,337,4.9,7.4,82,0.00,,,0.00,WUHU21623XXSP,2013-03-07 23:08:00,
2013-03-07 18:13:00,29.8,25.0,30.16,North,0,2.9,6.3,82,0.00,,,0.00,WUHU21623XXSP,2013-03-07 23:13:00,
2013-03-07 18:18:00,29.7,25.1,30.16,North,0,7.4,7.4,83,0.00,,,0.00,WUHU21623XXSP,2013-03-07 23:18:00,
2013-03-07 18:23:00,29.7,25.1,30.16,NNW,337,5.4,7.4,83,0.00,,,0.00,WUHU21623XXSP,2013-03-07 23:23:00,
2013-03-07 18:28:00,29.7,25.1,30.16,North,0,4.5,5.4,83,0.00,,,0.00,WUHU21623XXSP,2013-03-07 23:28:00,
2013-03-07 18:33:00,29.7,25.1,30.16,North,0,0.9,5.4,83,0.00,,,0.00,WUHU21623XXSP,2013-03-07 23:33:00,
2013-03-07 18:38:00,29.7,25.1,30.16,North,0,3.6,6.0,83,0.00,,,0.00,WUHU21623XXSP,2013-03-07 23:38:00,
2013-03-07 18:43:00,29.5,24.9,30.16,North,0,0.0,6.0,83,0.00,,,0.00,WUHU21623XXSP,2013-03-07 23:43:00,
2013-03-07 18:48:00,29.5,25.2,30.16,North,0,0.0,4.0,84,0.00,,,0.00,WUHU21623XXSP,2013-03-07 23:48:00,
2013-03-07 18:53:00,29.3,25.1,30.16,NNW,337,0.0,0.0,84,0.00,,,0.00,WUHU21623XXSP,2013-03-07 23:53:00,
2013-03-07 18:58:00,29.3,25.1,30.16,NNW,337,0.0,0.0,84,0.00,,,0.00,WUHU21623XXSP,2013-03-07 23:58:00,
2013-03-07 19:03:00,29.1,25.2,30.16,NNW,337,0.0,0.0,85,0.00,,,0.00,WUHU21623XXSP,2013-03-08 00:03:00,
2013-03-07 19:08:00,29.1,25.2,30.16,NNW,337,0.0,0.0,85,0.00,,,0.00,WUHU21623XXSP,2013-03-08 00:08:00,
2013-03-07 19:13:00,29.1,25.2,30.16,NNW,337,0.0,0.0,85,0.00,,,0.00,WUHU21623XXSP,2013-03-08 00:13:00,
2013-03-07 19:18:00,28.9,25.0,30.16,NNW,337,0.0,0.0,85,0.00,,,0.00,WUHU21623XXSP,2013-03-08 00:18:00,
2013-03-07 19:24:00,28.9,25.0,30.16,NNW,337,0.0,0.0,85,0.00,,,0.00,WUHU21623XXSP,2013-03-08 00:24:00,
2013-03-07 19:29:00,28.9,25.0,30.16,NNW,337,0.0,0.0,85,0.00,,,0.00,WUHU21623XXSP,2013-03-08 00:29:00,
2013-03-07 19:34:00,28.8,24.8,30.16,NW,315,0.0,0.0,85,0.00,,,0.00,WUHU21623XXSP,2013-03-08 00:34:00,
2013-03-07 19:39:00,28.8,25.1,30.16,NNW,337,0.0,0.0,86,0.00,,,0.00,WUHU21623XXSP,2013-03-08 00:39:00,
2013-03-07 19:44:00,28.8,25.1,30.16,NNW,337,0.0,0.0,86,0.00,,,0.00,WUHU21623XXSP,2013-03-08 00:44:00,
2013-03-07 19:49:00,28.6,24.9,30.16,NNW,337,0.0,0.0,86,0.00,,,0.00,WUHU21623XXSP,2013-03-08 00:49:00,
2013-03-07 19:54:00,28.6,24.9,30.16,NNW,337,0.0,0.0,86,0.00,,,0.00,WUHU21623XXSP,2013-03-08 00:54:00,
2013-03-07 19:59:00,28.6,24.9,30.16,NW,315,0.0,0.0,86,0.00,,,0.00,WUHU21623XXSP,2013-03-08 00:59:00,
2013-03-07 20:04:00,28.6,24.9,30.16,NNW,337,0.0,0.0,86,0.00,,,0.00,WUHU21623XXSP,2013-03-08 01:04:00,
2013-03-07 20:09:00,28.6,24.9,30.16,NNW,337,0.0,0.0,86,0.00,,,0.00,WUHU21623XXSP,2013-03-08 01:09:00,
2013-03-07 20:14:00,28.4,24.7,30.16,NW,315,0.0,0.0,86,0.00,,,0.00,WUHU21623XXSP,2013-03-08 01:14:00,
2013-03-07 20:19:00,28.2,24.5,30.16,NNW,337,0.0,0.0,86,0.00,,,0.00,WUHU21623XXSP,2013-03-08 01:19:00,
2013-03-07 20:24:00,28.2,24.5,30.16,NNW,337,0.0,0.0,86,0.00,,,0.00,WUHU21623XXSP,2013-03-08 01:24:00,
2013-03-07 20:29:00,28.2,24.8,30.16,NNW,337,0.0,0.0,87,0.00,,,0.00,WUHU21623XXSP,2013-03-08 01:29:00,
2013-03-07 20:34:00,28.2,24.8,30.16,NNW,337,0.0,0.0,87,0.00,,,0.00,WUHU21623XXSP,2013-03-08 01:34:00,
2013-03-07 20:39:00,28.0,24.7,30.16,NNW,337,0.0,0.0,87,0.00,,,0.00,WUHU21623XXSP,2013-03-08 01:39:00,
2013-03-07 20:44:00,28.0,24.7,30.15,NNW,337,0.0,0.0,87,0.00,,,0.00,WUHU21623XXSP,2013-03-08 01:44:00,
2013-03-07 20:49:00,28.0,24.7,30.15,NNW,337,0.0,0.0,87,0.00,,,0.00,WUHU21623XXSP,2013-03-08 01:49:00,
2013-03-07 20:54:00,28.0,24.7,30.15,NNW,337,0.0,0.0,87,0.00,,,0.00,WUHU21623XXSP,2013-03-08 01:54:00,
2013-03-07 20:59:00,28.0,24.7,30.15,NW,315,0.0,0.0,87,0.00,,,0.00,WUHU21623XXSP,2013-03-08 01:59:00,
2013-03-07 21:04:00,27.7,24.3,30.15,NNW,337,0.0,0.0,87,0.00,,,0.00,WUHU21623XXSP,2013-03-08 02:04:00,
2013-03-07 21:11:00,27.7,24.3,30.15,NNW,337,0.0,0.0,87,0.00,,,0.00,WUHU21623XXSP,2013-03-08 02:11:00,
2013-03-07 21:16:00,27.7,24.3,30.15,NNW,337,0.0,0.0,87,0.00,,,0.00,WUHU21623XXSP,2013-03-08 02:16:00,
2013-03-07 21:21:00,27.7,24.3,30.14,NNW,337,0.0,0.0,87,0.00,,,0.00,WUHU21623XXSP,2013-03-08 02:21:00,
2013-03-07 21:27:00,27.7,24.3,30.14,NNW,337,0.0,0.0,87,0.00,,,0.00,WUHU21623XXSP,2013-03-08 02:27:00,
2013-03-07 21:33:00,27.7,24.3,30.14,NNW,337,0.0,0.0,87,0.00,,,0.00,WUHU21623XXSP,2013-03-08 02:33:00,
2013-03-07 21:38:00,27.5,24.1,30.14,NNW,337,0.0,0.0,87,0.00,,,0.00,WUHU21623XXSP,2013-03-08 02:38:00,
2013-03-07 21:43:00,27.5,24.1,30.14,NW,315,0.0,0.0,87,0.00,,,0.00,WUHU21623XXSP,2013-03-08 02:43:00,
2013-03-07 21:48:00,27.5,24.1,30.14,NW,315,0.0,0.0,87,0.00,,,0.00,WUHU21623XXSP,2013-03-08 02:48:00,
2013-03-07 21:53:00,27.5,24.1,30.14,NW,315,0.0,0.0,87,0.00,,,0.00,WUHU21623XXSP,2013-03-08 02:53:00,
2013-03-07 21:58:00,27.5,24.1,30.13,NNW,337,0.0,0.0,87,0.00,,,0.00,WUHU21623XXSP,2013-03-08 02:58:00,
2013-03-07 22:03:00,27.5,24.1,30.13,WNW,292,0.0,0.0,87,0.00,,,0.00,WUHU21623XXSP,2013-03-08 03:03:00,
2013-03-07 22:08:00,27.5,24.1,30.13,NW,315,0.0,0.0,87,0.00,,,0.00,WUHU21623XXSP,2013-03-08 03:08:00,
2013-03-07 22:13:00,27.5,24.1,30.13,NNW,337,0.0,0.0,87,0.00,,,0.00,WUHU21623XXSP,2013-03-08 03:13:00,
2013-03-07 22:18:00,27.5,24.1,30.13,NW,315,0.0,0.0,87,0.00,,,0.00,WUHU21623XXSP,2013-03-08 03:18:00,
2013-03-07 22:23:00,27.3,23.6,30.13,NW,315,0.0,0.0,86,0.00,,,0.00,WUHU21623XXSP,2013-03-08 03:23:00,
2013-03-07 22:28:00,27.3,23.6,30.13,NW,315,0.0,0.0,86,0.00,,,0.00,WUHU21623XXSP,2013-03-08 03:28:00,
2013-03-07 22:33:00,27.3,23.6,30.13,NW,315,0.0,0.0,86,0.00,,,0.00,WUHU21623XXSP,2013-03-08 03:33:00,
2013-03-07 22:38:00,27.3,23.6,30.13,North,0,0.0,0.0,86,0.00,,,0.00,WUHU21623XXSP,2013-03-08 03:38:00,
2013-03-07 22:43:00,27.3,23.6,30.13,North,0,0.0,0.0,86,0.00,,,0.00,WUHU21623XXSP,2013-03-08 03:43:00,
2013-03-07 22:48:00,27.1,23.5,30.13,NW,315,0.0,0.0,86,0.00,,,0.00,WUHU21623XXSP,2013-03-08 03:48:00,
2013-03-07 22:53:00,27.1,23.5,30.13,NNW,337,0.0,0.0,86,0.00,,,0.00,WUHU21623XXSP,2013-03-08 03:53:00,
2013-03-07 22:58:00,27.1,23.5,30.13,WNW,292,0.0,0.0,86,0.00,,,0.00,WUHU21623XXSP,2013-03-08 03:58:00,
2013-03-07 23:00:00,26.4,23.0,30.13,North,0,0.0,0.0,87,0.00,,,0.00,WUHU21623XXSP,2013-03-08 04:00:00,
2013-03-07 23:02:00,26.4,23.0,30.13,NNW,337,0.0,0.0,87,0.00,,,0.00,WUHU21623XXSP,2013-03-08 04:02:00,
2013-03-07 23:03:00,27.1,23.5,30.13,NNW,337,0.0,0.0,86,0.00,,,0.00,WUHU21623XXSP,2013-03-08 04:03:00,
2013-03-07 23:05:00,26.4,23.0,30.13,NNW,337,0.0,0.0,87,0.00,,,0.00,WUHU21623XXSP,2013-03-08 04:05:00,
2013-03-07 23:07:00,26.4,23.0,30.13,NNW,337,0.0,0.0,87,0.00,,,0.00,WUHU21623XXSP,2013-03-08 04:07:00,
2013-03-07 23:08:00,27.1,23.5,30.13,NW,315,0.0,0.0,86,0.00,,,0.00,WUHU21623XXSP,2013-03-08 04:08:00,
2013-03-07 23:13:00,27.0,23.3,30.13,NW,315,0.0,0.0,86,0.00,,,0.00,WUHU21623XXSP,2013-03-08 04:13:00,
2013-03-07 23:18:00,27.0,23.3,30.13,NW,315,0.0,0.0,86,0.00,,,0.00,WUHU21623XXSP,2013-03-08 04:18:00,
2013-03-07 23:23:00,26.8,23.1,30.13,NNW,337,0.0,0.0,86,0.00,,,0.00,WUHU21623XXSP,2013-03-08 04:23:00,
2013-03-07 23:29:00,26.8,23.1,30.13,NNW,337,0.0,0.0,86,0.00,,,0.00,WUHU21623XXSP,2013-03-08 04:29:00,
2013-03-07 23:34:00,26.6,23.2,30.13,NW,315,0.0,0.0,87,0.00,,,0.00,WUHU21623XXSP,2013-03-08 04:34:00,
2013-03-07 23:39:00,26.6,23.2,30.13,NNW,337,0.0,0.0,87,0.00,,,0.00,WUHU21623XXSP,2013-03-08 04:39:00,
2013-03-07 23:44:00,26.6,23.2,30.13,NW,315,0.0,0.0,87,0.00,,,0.00,WUHU21623XXSP,2013-03-08 04:44:00,
2013-03-07 23:49:00,26.4,23.0,30.13,NNW,337,0.0,0.0,87,0.00,,,0.00,WUHU21623XXSP,2013-03-08 04:49:00,
2013-03-07 23:54:00,26.4,23.0,30.13,NNW,337,0.0,0.0,87,0.00,,,0.00,WUHU21623XXSP,2013-03-08 04:54:00,